Hartford, CT

11:58 AM EDT on July 23, 2016 (GMT -0400)
Bradley International

Weather History for KBDL - October, 2012

Change the Weather History Date:

Monday, October 29, 2012

  Actual Average Record
Temperature  
Mean Temperature 60 °F 48 °F  
Max Temperature 68 °F 58 °F 77 °F (1918)
Min Temperature 51 °F 37 °F 20 °F (1940)
Degree Days  
Heating Degree Days 5 17  
Month to date heating degree days 267 372  
Since 1 July heating degree days 360 494  
Cooling Degree Days 0 0  
Month to date cooling degree days 1 5  
Year to date cooling degree days 981 754  
Growing Degree Days 9 (Base 50)    
Moisture  
Dew Point 54 °F    
Average Humidity 81    
Maximum Humidity 93    
Minimum Humidity 68    
Precipitation  
Precipitation 0.72 in 0.12 in 1.42 in (2003)
Month to date precipitation 3.92 4.12  
Year to date precipitation 33.41 38.27  
Snow  
Snow 0.00 in 0.00 in T in (2000)
Month to date snowfall 0.0 0.0  
Since 1 July snowfall 0.0 0.0  
Since 1 September snowfall 0.0 0.0  
Snow Depth 0.00 in    
Sea Level Pressure  
Sea Level Pressure 29.30 in    
Wind  
Wind Speed 22 mph (NE)    
Max Wind Speed 40 mph    
Max Gust Speed 62 mph    
Visibility 6 miles    
Events Rain    
T = Trace of Precipitation, MM = Missing Value Source: NWS Daily Summary

Daily Weather History Graph

Daily Weather History Graph

Search for Another Location

Airport or City:

Trip Planner

Search our weather history database for the weather conditions in past years. The results will help you decide how hot, cold, wet, or windy it might be!

Date:

Astronomy

Oct. 29, 2012 Rise Set
Actual Time 7:20 AM EDT 5:48 PM EDT
Civil Twilight 6:51 AM EDT 6:16 PM EDT
Nautical Twilight 6:18 AM EDT 6:49 PM EDT
Astronomical Twilight 5:46 AM EDT 7:22 PM EDT
Moon 5:37 PM EDT (10/29) 7:08 AM EDT (10/29)
Length of Visible Light 11h 25m
Length of Day
10h 27m
Full, 100% of the Moon is Illuminated
Oct 29
Full
Oct 29
Full
Nov 6
Last Quarter
Nov 13
New
Nov 20
First Quarter

Hourly Weather History & Observations

Time (EDT) Temp. Dew Point Humidity Pressure Visibility Wind Dir Wind Speed Gust Speed Precip Events Conditions
12:51 AM 51.1 °F 46.0 °F 83% 29.71 in 10.0 mi North 15.0 mph 21.9 mph N/A   Overcast
1:28 AM 51.8 °F 46.4 °F 82% 29.71 in 9.0 mi NNE 13.8 mph - N/A   Overcast
1:51 AM 52.0 °F 46.9 °F 83% 29.70 in 10.0 mi NNE 12.7 mph 23.0 mph N/A   Overcast
2:51 AM 51.1 °F 48.0 °F 89% 29.66 in 4.0 mi North 13.8 mph - 0.00 in   Light Drizzle
3:02 AM 51.8 °F 48.2 °F 88% 29.65 in 6.0 mi North 15.0 mph - 0.00 in   Light Drizzle
3:51 AM 51.1 °F 48.0 °F 89% 29.62 in 5.0 mi North 12.7 mph - 0.00 in   Light Drizzle
4:05 AM 51.8 °F 48.2 °F 88% 29.62 in 4.0 mi North 12.7 mph - 0.00 in   Light Drizzle
4:33 AM 51.8 °F 48.2 °F 88% 29.61 in 10.0 mi NNE 15.0 mph 21.9 mph 0.00 in   Light Drizzle
4:51 AM 53.1 °F 48.9 °F 86% 29.60 in 10.0 mi North 17.3 mph - 0.00 in   Light Drizzle
5:51 AM 52.0 °F 48.9 °F 89% 29.56 in 8.0 mi North 18.4 mph 25.3 mph 0.00 in   Light Drizzle
6:10 AM 51.8 °F 48.2 °F 88% 29.55 in 10.0 mi North 18.4 mph 27.6 mph 0.00 in   Light Drizzle
6:51 AM 53.1 °F 48.9 °F 86% 29.54 in 8.0 mi NNE 24.2 mph 29.9 mph 0.00 in   Overcast
7:51 AM 53.1 °F 48.9 °F 86% 29.52 in 6.0 mi NNE 19.6 mph 27.6 mph 0.00 in   Light Drizzle
8:51 AM 53.1 °F 50.0 °F 89% 29.51 in 3.0 mi North 20.7 mph 27.6 mph 0.00 in   Light Drizzle
9:16 AM 53.6 °F 51.8 °F 94% 29.47 in 3.0 mi North 19.6 mph 27.6 mph 0.00 in   Light Drizzle
9:37 AM 53.6 °F 51.8 °F 94% 29.46 in 3.0 mi North 19.6 mph 29.9 mph 0.00 in   Light Drizzle
9:51 AM 54.0 °F 51.1 °F 90% 29.44 in 3.0 mi NNE 18.4 mph 28.8 mph 0.00 in   Light Drizzle
10:49 AM 55.4 °F 51.8 °F 88% 29.40 in 10.0 mi NNE 23.0 mph 29.9 mph 0.00 in   Light Drizzle
10:51 AM 55.9 °F 52.0 °F 87% 29.39 in 10.0 mi NNE 25.3 mph 34.5 mph 0.00 in   Light Drizzle
11:51 AM 57.9 °F 53.1 °F 84% 29.33 in 8.0 mi NNE 25.3 mph 39.1 mph 0.00 in   Light Drizzle
12:51 PM 57.9 °F 54.0 °F 87% 29.24 in 5.0 mi NE 29.9 mph 38.0 mph 0.00 in Rain Light Rain
1:51 PM 57.9 °F 55.0 °F 90% 29.17 in 4.0 mi NNE 27.6 mph 42.6 mph 0.03 in Rain Light Rain
2:51 PM 59.0 °F 55.0 °F 87% 29.10 in 3.0 mi NE 28.8 mph 42.6 mph 0.02 in Rain Light Rain
3:47 PM 59.0 °F 55.4 °F 88% 29.04 in 2.5 mi NE 28.8 mph 41.4 mph 0.02 in Rain Light Rain
3:51 PM 59.0 °F 55.0 °F 87% 29.03 in 2.5 mi NE 29.9 mph 41.4 mph 0.02 in Rain Light Rain
4:51 PM 60.8 °F 55.4 °F 82% 28.99 in 2.5 mi NE 27.6 mph 40.3 mph N/A Rain Light Rain
5:51 PM 63.0 °F 57.9 °F 84% 28.99 in 2.5 mi ENE 19.6 mph 40.3 mph 0.06 in Rain Light Rain
6:39 PM 66.2 °F 59.0 °F 78% 28.99 in 7.0 mi East 34.5 mph 54.1 mph 0.06 in Rain Light Rain
6:51 PM 68.0 °F 57.9 °F 70% 29.00 in 7.0 mi East 23.0 mph 44.9 mph 0.06 in Rain Light Rain
7:16 PM 66.2 °F 60.8 °F 83% 29.02 in 2.0 mi ESE 25.3 mph 62.1 mph 0.02 in Rain Rain
7:21 PM 64.4 °F 60.8 °F 88% 29.02 in 5.0 mi ESE 31.1 mph 43.7 mph 0.06 in Rain Light Rain
7:26 PM 64.4 °F 60.8 °F 88% 29.01 in 2.0 mi ESE 23.0 mph 43.7 mph 0.08 in Rain Heavy Rain
7:35 PM 64.4 °F 60.8 °F 88% 29.03 in 6.0 mi ESE 17.3 mph 36.8 mph 0.15 in Rain Light Rain
7:47 PM 64.4 °F 60.8 °F 88% 29.03 in 2.0 mi East 20.7 mph 32.2 mph 0.18 in Rain Heavy Rain
7:51 PM 64.0 °F 61.0 °F 90% 29.03 in 2.0 mi ESE 26.5 mph 38.0 mph 0.28 in Rain Heavy Rain
8:03 PM 64.4 °F 60.8 °F 88% 29.03 in 6.0 mi SE 15.0 mph 23.0 mph 0.09 in Rain Light Rain
8:46 PM 64.4 °F 60.8 °F 88% 29.05 in 10.0 mi East 21.9 mph 31.1 mph 0.13 in   Overcast
8:51 PM 64.9 °F 59.0 °F 81% 29.05 in 10.0 mi East 21.9 mph 34.5 mph 0.13 in   Overcast
9:45 PM 62.6 °F 57.2 °F 82% 29.08 in 1.5 mi SE 28.8 mph 39.1 mph 0.00 in Rain Heavy Rain
9:51 PM 63.0 °F 57.0 °F 81% 29.08 in 5.0 mi SE 26.5 mph 39.1 mph 0.06 in Rain Light Rain
10:51 PM 62.1 °F 57.0 °F 84% 29.12 in 5.0 mi SE 20.7 mph 29.9 mph 0.02 in Rain Light Rain
11:51 PM 60.1 °F 55.9 °F 86% 29.16 in 6.0 mi SE 23.0 mph 28.8 mph 0.02 in Rain Rain